Location: Cambridge (historical)
(38.6883°N, 119.0140°W)
Time: 13:09:41
(UTC+00:00)

Cosmos 2228 - Pass Details

Date: 29 October 2020
Orbit: 590 x 617 km, 82.5° (Epoch: 01 December)

Event Time Altitude Azimuth Distance (km) Brightness Sun altitude
Rises 12:56:59 0° 344° (NNW) 2,883 6.3 -16.8°
Reaches altitude 10° 12:59:19 10° 336° (NNW) 1,977 5.4 -16.3°
Maximum altitude 13:03:22 38° 269° (W) 942 3.5 -15.6°
Drops below altitude 10° 13:07:25 10° 201° (SSW) 1,972 5.5 -14.8°
Sets 13:09:44 0° 193° (SSW) 2,874 6.4 -14.3°
